Regional Weather Roundup
Issued by NWS

Home | Current Version | Previous Version | Graphics & Text | Print | Product List | Glossary On
Versions: 1 2 3 4 5 6 7 8 9 10 11 12 13 14 15 16 17 18 19 20 21 22 23 24 25 26 27 28 29 30 31 32 33 34 35 36 37 38 39 40 41 42 43 44 45 46 47 48 49 50
000
ASUS43 KLOT 260412
RWRIL

ILLINOIS REGIONAL WEATHER ROUNDUP
NATIONAL WEATHER SERVICE CHICAGO/ROMEOVILLE IL
1100 PM CDT SAT APR 25 2015

NOTE: "FAIR" INDICATES FEW OR NO CLOUDS BELOW 12,000 FEET WITH NO
SIGNIFICANT WEATHER AND/OR OBSTRUCTIONS TO VISIBILITY.

* THESE STATIONS ARE NOT UNDER NWS QUALITY CONTROL. THEY ALSO MAY NOT
  REPORT WEATHER SUCH AS PRECIPITATION OR FOG.

ILZ001-002-007-009-015-016-024-260500-
NORTHWEST ILLINOIS

CITY           SKY/WX    TMP DP  RH WIND       PRES   REMARKS
MOLINE         CLOUDY    45  36  70 NE13      29.86R
STERLING*      CLOUDY    45  30  57 NE9G18    29.87R
SAVANNA*       PTCLDY    43  34  70 N6        29.88R
$$

ILZ003-004-008-010-011-017-018-260500-
NORTH CENTRAL ILLINOIS

CITY           SKY/WX    TMP DP  RH WIND       PRES   REMARKS
ROCKFORD       PTCLDY    42  26  53 NE10      29.90R
FREEPORT*      CLOUDY    39  33  80 CALM      29.90R
ROCHELLE*      PTCLDY    40  31  70 NE10      29.87R
DE KALB*       PTCLDY    37  27  66 N12       29.86R WCI  30
PERU*          CLOUDY    43  35  72 NE13      29.85R
$$

ILZ005-006-012>014-019>023-260500-
NORTHEAST ILLINOIS

CITY           SKY/WX    TMP DP  RH WIND       PRES   REMARKS
CHICAGO-OHARE  CLOUDY    42  30  62 NE10      29.84S
CHICAGO-MIDWAY MOCLDY    41  32  70 N12       29.84S
AURORA         CLEAR     39  29  67 N7        29.85R WCI  34
LANSING*       CLOUDY    40  34  79 N6        29.83S
JOLIET*        CLOUDY    43  34  70 NE8       29.84R
WAUKEGAN       PTCLDY    40  28  62 N7        29.85S
DUPAGE AIRPORT CLOUDY    41  29  62 N10       29.84S
KANKAKEE*      CLOUDY    43  39  88 NE9       29.82R
WHEELING       CLOUDY    42  28  57 N10       29.86S
MORRIS*        CLOUDY    42  35  76 N5        29.80F
ROMEOVILLE*    PTCLDY    40  32  74 NE13      29.83S
NORTHERLY ISL    N/A     41  33  73 N13         N/A
$$

LMZ740>746-260500-
SOUTHERN LAKE MICHIGAN

STATION/POSITION SKY/WX   TEMP    WIND        PRES    VSBY  WAVE
                          AIR SEA DIR/SP/G                  HT/PER
                          (F)     (DEG/KT/KT) (MB)    (MI)  (FT/S)
HARRISON CRIB              39     340/ 12/ 14   N/A
BURNHAM HARBOR             41     340/  9/ 14   N/A
CALUMET HARBOR             40     340/ 10/ 13   N/A
BURNS HARBOR               41      30/ 11/ 12 1010.8R
MICHIGAN CITY              40      10/ 10/ 11   N/A
MICHIGAN CITY 6N           39 45   50/  8/ 10   N/A           2/ 3
$$

ILZ025>027-034>036-040-047-049-050-058-095>099-260500-
WEST-CENTRAL ILLINOIS

CITY           SKY/WX    TMP DP  RH WIND       PRES   REMARKS
QUINCY         CLOUDY    47  43  86 NE16      29.80R
GALESBURG*     CLOUDY    43  40  87 NE10      29.84R
MACOMB*        CLOUDY    46  41  84 NE14      29.85R
JACKSONVILLE*  CLOUDY    49  44  83 NE17      29.79R
PITTSFIELD*    CLOUDY    48  44  85 NE12G17   29.80R
$$

ILZ028>032-037-038-041>044-048-051>054-059>061-260500-
CENTRAL ILLINOIS

CITY           SKY/WX    TMP DP  RH WIND       PRES   REMARKS
PONTIAC        CLOUDY    45  42  89 NE15      29.82R
BLOOMINGTON    CLOUDY    45  43  93 NE17      29.80S
DECATUR        CLOUDY    46  42  86 NE18      29.76R
PEORIA         CLOUDY    48  40  73 NE14G21   29.82R
LACON*         CLOUDY    44  39  81 NE6       29.83R
LINCOLN*       CLOUDY    47  42  82 NE10G20   29.78R
SPRINGFIELD    CLOUDY    48  42  80 NE20      29.79R
TAYLORVILLE    CLOUDY    45  43  93 NE15G21   29.75R
$$

ILZ033-039-045-046-055>057-062-063-260500-
EAST-CENTRAL ILLINOIS

CITY           SKY/WX    TMP DP  RH WIND       PRES   REMARKS
CHAMPAIGN      CLOUDY    45  41  86 NE21G30   29.75R
DANVILLE*      CLOUDY    44  40  88 NE13      29.74R
RANTOUL*       CLOUDY    46  43  88 NE15      29.78R
MATTOON        CLOUDY    45  43  93 NE14G23   29.72R
PARIS*         CLOUDY    46  42  89 NE14G22   29.75R
$$

ILZ079-100>102-260500-
SOUTHWEST ILLINOIS

CITY           SKY/WX    TMP DP  RH WIND       PRES   REMARKS
ALTON          CLOUDY    48  47  97 N9        29.74R FOG
BELLEVILLE     CLOUDY    50  50  99 N8G23     29.71R
CAHOKIA*       CLOUDY    52  49  89 NE14G23   29.73R FOG
SPARTA*        CLOUDY    53  51  95 N12       29.69R FOG
$$

ILZ064>066-069>071-074>076-080>082-084>086-088>090-092>094-260500-
SOUTH-CENTRAL ILLINOIS

CITY           SKY/WX    TMP DP  RH WIND       PRES   REMARKS
CARBONDALE     CLOUDY    56  53  90 N10       29.65R
CAIRO*         CLOUDY    64  58  82 N5        29.61R
EFFINGHAM*     CLOUDY    46  44  90 N6        29.73R
MARION         CLOUDY    57  55  94 N12       29.66R
MT. VERNON     CLOUDY    52  45  76 N15G22    29.69R
CENTRALIA*     CLOUDY    49  47  93 NE8       29.69R FOG
SALEM*         CLOUDY    50  47  90 N14       29.70R FOG
METROPOLIS*    CLOUDY    62  62 100 NW5       29.61R
$$

ILZ067-068-072-073-078-083-087-091-260500-
SOUTHEAST ILLINOIS

CITY           SKY/WX    TMP DP  RH WIND       PRES   REMARKS
LAWRENCEVILLE  LGT RAIN  48  46  93 N16       29.69R FOG
FLORA*         CLOUDY    49  46  91 NE10G20   29.70R
FAIRFIELD*     CLOUDY    50  48  93 N9G20     29.67R
HARRISBURG*    CLOUDY    55  55 100 N10       29.66R
ROBINSON*      CLOUDY    47  46  95 NE15      29.72R FOG
CARMI*         CLOUDY    53  48  83 N15G21    29.65R
$$

ABBREVIATIONS USED IN REMARKS
   TC - TEMPERATURE IN CELSIUS
  WCI - WIND CHILL INDEX
   HX - HEAT INDEX
  VSB - VISIBILITY
$$



USA.gov is the U.S. government's official web portal to all federal, state and local government web resources and services.